Savoy, IL

1:32 PM CST on February 21, 2017 (GMT -0600)
Univ Of Illinois-Willard

Weather History for KCMI - February, 2013

Change the Weather History Date:

Sunday, February 10, 2013

  Actual Average Record
Temperature  
Mean Temperature 43 °F 28 °F  
Max Temperature 52 °F 36 °F 62 °F (2009)
Min Temperature 34 °F 20 °F -13 °F (2011)
Degree Days  
Heating Degree Days 22 37  
Month to date heating degree days 346 381  
Since 1 July heating degree days 3530 3891  
Cooling Degree Days 0 0  
Month to date cooling degree days 0 0  
Year to date cooling degree days 0 0  
Moisture  
Dew Point 41 °F    
Average Humidity 90    
Maximum Humidity 100    
Minimum Humidity 80    
Precipitation  
Precipitation 0.49 in 0.09 in 0.49 in (2013)
Month to date precipitation 0.72 0.72  
Year to date precipitation 3.09 2.77  
Sea Level Pressure  
Sea Level Pressure 29.79 in    
Wind  
Wind Speed 18 mph (SSE)    
Max Wind Speed 31 mph    
Max Gust Speed 40 mph    
Visibility 7 miles    
Events Rain    
T = Trace of Precipitation, MM = Missing Value Source: NWS Daily Summary

Daily Weather History Graph

Daily Weather History Graph

Search for Another Location

Airport or City:

Trip Planner

Search our weather history database for the weather conditions in past years. The results will help you decide how hot, cold, wet, or windy it might be!

Date:

Astronomy

Feb. 10, 2013 Rise Set
Actual Time 6:51 AM CST 5:23 PM CST
Civil Twilight 6:23 AM CST 5:51 PM CST
Nautical Twilight 5:51 AM CST 6:23 PM CST
Astronomical Twilight 5:20 AM CST 6:54 PM CST
Moon 6:41 AM CST (2/10) 6:13 PM CST (2/10)
Length of Visible Light 11h 27m
Length of Day
10h 31m
New Moon, 0% of the Moon is Illuminated
Feb 10
New Moon
Feb 17
First Quarter
Feb 25
Full
Mar 4
Last Quarter
Mar 11
New

Hourly Weather History & Observations

Time (CST) Temp. Windchill Dew Point Humidity Pressure Visibility Wind Dir Wind Speed Gust Speed Precip Events Conditions
12:53 AM 35.1 °F 31.0 °F 28.9 °F 78% 30.12 in 10.0 mi SSE 4.6 mph - 0.00 in Rain Light Rain
1:53 AM 34.0 °F 27.2 °F 30.0 °F 85% 30.10 in 9.0 mi ESE 8.1 mph - 0.00 in Rain Light Rain
2:53 AM 34.0 °F 27.2 °F 30.9 °F 89% 30.07 in 5.0 mi SE 8.1 mph - 0.03 in Rain Light Rain
3:29 AM 35.6 °F 29.2 °F 33.8 °F 93% 30.03 in 4.0 mi SE 8.1 mph - 0.06 in Rain Rain
3:53 AM 34.0 °F 25.5 °F 33.1 °F 96% 30.04 in 4.0 mi ESE 11.5 mph - 0.10 in Rain Light Rain
4:02 AM 33.8 °F 24.8 °F 33.8 °F 100% 30.01 in 4.0 mi ESE 12.7 mph - 0.01 in Rain Light Rain
4:53 AM 34.0 °F 25.0 °F 33.1 °F 96% 30.01 in 4.0 mi ESE 12.7 mph - 0.04 in Rain Light Rain
5:53 AM 35.1 °F 26.4 °F 34.0 °F 96% 29.99 in 6.0 mi SE 12.7 mph - 0.01 in Rain Light Rain
6:53 AM 36.0 °F 27.1 °F 33.1 °F 89% 29.97 in 10.0 mi SE 13.8 mph - 0.00 in Rain Light Rain
7:18 AM 35.6 °F 26.6 °F 33.8 °F 93% 29.93 in 10.0 mi SE 13.8 mph - 0.00 in Rain Light Rain
7:53 AM 37.0 °F 28.5 °F 33.1 °F 86% 29.94 in 10.0 mi ESE 13.8 mph - 0.00 in   Overcast
8:27 AM 37.4 °F 28.5 °F 35.6 °F 93% 29.91 in 8.0 mi SE 15.0 mph - 0.00 in Rain Light Rain
8:53 AM 39.0 °F 31.8 °F 36.0 °F 89% 29.91 in 9.0 mi SE 11.5 mph - 0.02 in Rain Light Rain
9:38 AM 41.0 °F 33.1 °F 37.4 °F 87% 29.84 in 10.0 mi SE 15.0 mph - N/A   Mostly Cloudy
9:53 AM 43.0 °F 36.4 °F 39.0 °F 86% 29.86 in 9.0 mi SE 12.7 mph 19.6 mph 0.00 in Rain Light Rain
10:53 AM 44.1 °F 35.2 °F 39.9 °F 85% 29.84 in 4.0 mi SSE 23.0 mph 27.6 mph 0.12 in Rain Rain
11:53 AM 45.0 °F 36.9 °F 41.0 °F 86% 29.80 in 2.5 mi SSE 20.7 mph 28.8 mph 0.07 in Rain Rain
12:06 PM 44.6 °F 35.9 °F 41.0 °F 87% 29.76 in 3.0 mi SSE 23.0 mph 28.8 mph 0.02 in Rain Rain
12:53 PM 46.0 °F 37.0 °F 43.0 °F 89% 29.73 in 7.0 mi SSE 27.6 mph 39.1 mph 0.09 in Rain Light Rain
1:05 PM 46.4 °F 37.7 °F 42.8 °F 87% 29.71 in 7.0 mi SSE 26.5 mph 36.8 mph 0.00 in Rain Light Rain
1:53 PM 46.0 °F 37.4 °F 43.0 °F 89% 29.68 in 9.0 mi SSE 25.3 mph 35.7 mph 0.00 in   Overcast
2:53 PM 46.9 °F - 44.1 °F 90% 29.65 in 10.0 mi SSE 28.8 mph 40.3 mph N/A   Overcast
3:53 PM 46.9 °F - 45.0 °F 93% 29.64 in 2.5 mi SSE 23.0 mph 31.1 mph 0.00 in   Overcast
4:11 PM 46.4 °F 38.5 °F 46.4 °F 100% 29.62 in 1.5 mi SSE 21.9 mph 33.4 mph 0.01 in   Overcast
4:26 PM 48.2 °F - 46.4 °F 93% 29.62 in 1.8 mi South 23.0 mph 29.9 mph 0.01 in Rain Light Rain
4:32 PM 48.2 °F - 46.4 °F 93% 29.62 in 3.0 mi South 25.3 mph 31.1 mph 0.01 in Rain Light Rain
4:53 PM 48.0 °F - 46.9 °F 96% 29.64 in 3.0 mi South 23.0 mph 33.4 mph 0.01 in Rain Light Rain
5:53 PM 50.0 °F - 46.9 °F 89% 29.65 in 10.0 mi South 23.0 mph 31.1 mph 0.00 in   Overcast
6:53 PM 50.0 °F - 48.0 °F 93% 29.63 in 10.0 mi South 19.6 mph 29.9 mph N/A   Overcast
7:10 PM 50.0 °F - 48.2 °F 94% 29.61 in 10.0 mi South 21.9 mph 28.8 mph N/A   Mostly Cloudy
7:33 PM 50.0 °F - 48.2 °F 94% 29.61 in 10.0 mi South 23.0 mph 28.8 mph N/A   Overcast
7:53 PM 50.0 °F - 48.0 °F 93% 29.62 in 10.0 mi South 21.9 mph - N/A   Overcast
8:53 PM 51.1 °F - 48.9 °F 92% 29.63 in 10.0 mi South 24.2 mph 31.1 mph N/A   Mostly Cloudy
9:26 PM 50.0 °F - 48.2 °F 94% 29.62 in 10.0 mi South 20.7 mph 29.9 mph N/A   Scattered Clouds
9:53 PM 50.0 °F - 48.0 °F 93% 29.64 in 10.0 mi SSW 19.6 mph - N/A   Clear
10:48 PM 50.0 °F - 46.4 °F 87% 29.63 in 10.0 mi SSW 19.6 mph - N/A   Partly Cloudy
10:53 PM 50.0 °F - 45.0 °F 83% 29.64 in 10.0 mi SSW 19.6 mph - N/A   Partly Cloudy
11:53 PM 46.0 °F 39.3 °F 39.9 °F 79% 29.66 in 10.0 mi SW 16.1 mph - N/A   Clear